Regional Weather Roundup
Issued by NWS

Home | Current Version | Previous Version | Graphics & Text | Print | Product List | Glossary On
Versions: 1 2 3 4 5 6 7 8 9 10 11 12 13 14 15 16 17 18 19 20 21 22 23 24 25 26 27 28 29 30 31 32 33 34 35 36 37 38 39 40 41 42 43 44 45 46 47 48 49 50
000
ASUS43 KDTX 211610
RWRMI
MICHIGAN HOURLY REGIONAL WEATHER ROUNDUP
NATIONAL WEATHER SERVICE DETROIT/PONTIAC MI
1100 AM EST TUE FEB 21 2017

NOTE: "FAIR" INDICATES FEW OR NO CLOUDS BELOW 12,000 FEET WITH NO
SIGNIFICANT WEATHER AND/OR OBSTRUCTION TO VISIBILITY.

MIZ047>049-052>055-059>063-066>070-074>076-081>083-211700-
SOUTHEAST LOWER MICHIGAN

CITY           SKY/WX    TMP DP  RH WIND       PRES   REMARKS
ADRIAN         CLOUDY    46  40  79 W6        29.97S
ALMA           CLOUDY    48  46  91 SW7       29.91S FOG
ANN ARBOR      CLOUDY    47  39  74 S3        29.96S
BAD AXE        MIX PCPN  43  40  87 SW7       29.92S
CARO           RAIN      47  45  93 S5        29.90F
DETROIT CITY   CLOUDY    48  38  68 W5        29.96F
DETROIT        LGT RAIN  46  38  73 S8        29.98R
FLINT          CLOUDY    50  43  77 SW9       29.93F
GROSSE ILE     PTSUNNY   41  36  82 CALM      29.96R
HILLSDALE      LGT RAIN  50  46  87 CALM      29.96F
HOWELL         LGT RAIN  48  42  81 SW9       29.94S

CITY           SKY/WX    TMP DP  RH WIND       PRES   REMARKS
JACKSON        LGT RAIN  50  46  86 SW7       29.95R
LAMBERTVILLE   CLOUDY    51  41  68 W6        29.98R
LANSING        LGT RAIN  51  47  86 SW7       29.94R
LAPEER         PTSUNNY   48  43  81 SW7       29.92F
MASON          CLOUDY    51  46  83 S3        29.94S
MONROE         CLOUDY    46  40  81 SW5       29.96F
MT. CLEMENS    PTSUNNY   43  36  75 E3        29.92F
PONTIAC        CLOUDY    47  37  68 S6        29.93F
PORT HOPE        N/A     46  41  82 SW8       29.89R
PORT HURON     CLOUDY    46  36  66 S7        29.96S
TRI CITIES     LGT RAIN  47  46  97 SW8       29.90F FOG
MIDLAND        CLOUDY    47  44  90 CALM      29.90R FOG
TROY           CLOUDY    47  34  61 SW3       29.96F
SAGINAW HB     LGT RAIN  46  43  87 SW7       29.89F
$$
MIZ043>046-050>051-056>058-064>065-071>073-077>080-211700-
SOUTHWEST LOWER MICHIGAN

CITY           SKY/WX    TMP DP  RH WIND       PRES   REMARKS
BATTLE CREEK   LGT RAIN  51  49  92 SW8       29.96R FOG
BENTON HARBOR  PTSUNNY   56  53  90 S5        29.95R FOG
BIG RAPIDS     CLOUDY    49  48  95 W7        29.90R FOG
COLDWATER      CLOUDY    51  49  92 W3        29.96F
FREMONT        CLOUDY    50  50 100 W10       29.92R FOG
HOLLAND        CLOUDY    55  52  89 SW8       29.93S
GRAND RAPIDS   CLOUDY    54  50  86 SW9       29.92R
IONIA          FAIR      51  48  91 SW10      29.91S
KALAMAZOO      LGT RAIN  51  48  89 S8        29.95S FOG
LUDINGTON      MOSUNNY   49  45  87 W6        29.90S
MARSHALL       LGT RAIN  51  49  92 SW5       29.95R
MOUNT PLEASANT CLOUDY    49  47  92 SW3       29.89R FOG
MUSKEGON       CLOUDY    48  47  96 SW12G22   29.93S FOG
SOUTH HAVEN    CLOUDY    56  54  93 SW7       29.94S
$$
MIZ016>042-211700-
NORTHERN LOWER MICHIGAN

CITY           SKY/WX    TMP DP  RH WIND       PRES   REMARKS
ALPENA         CLOUDY    44  43  96 SW5       29.86R
BEAVER ISLAND  FOG       41  41 100 SW9       29.83S VSB<1/4
BELLAIRE       CLOUDY    48  46  95 CALM      29.87R FOG
CADILLAC       FOG       47  47  97 SW7       29.87S VSB<1/4
CHARLEVOIX     CLOUDY    50  48  91 SW14G20   29.87S
FRANKFORT      PTSUNNY   48  45  89 W5        29.88S FOG
GAYLORD        FOG       44  41  89 S6        29.85R VSB<1/4
GRAYLING       FOG       44  44  98 SW3       29.87S VSB 1/2
HARBOR SPRINGS CLOUDY    47  46  97 W3        29.84S FOG
HOUGHTON LAKE  FOG       43  42  97 SW7       29.88S VSB 3/4
MANISTEE       SUNNY     51  46  83 W8        29.90R
OSCODA         CLOUDY    41  39  91 SW9       29.88R
PELLSTON       CLOUDY    47  44  90 W10       29.84R FOG
ROGERS CITY    CLOUDY    48  45  88 SW12G18   29.84S FOG
TRAVERSE CITY  PTSUNNY   53  47  79 W14       29.86R
$$
MIZ007>008-015-211700-
EASTERN UPPER MICHIGAN

CITY           SKY/WX    TMP DP  RH WIND       PRES   REMARKS
KINROSS        FOG       42  41  96 SW5       29.81S VSB 1/4
MACKINAC ISLAN FOG       40  40 100 W12G17    29.83R VSB<1/4 WCI  33
NEWBERRY       CLOUDY    41  40  97 W10       29.80R FOG
S. S. MARIE    FOG       37  35  92 CALM      29.81S VSB 1/4
MUNISING         N/A     51  38  60 VRB3      29.79R
$$
MIZ004>006-011>014-085-211700-
CENTRAL UPPER MICHIGAN

CITY           SKY/WX    TMP DP  RH WIND       PRES   REMARKS
MANISTIQUE     SUNNY     48  46  92 W7        29.81R
ESCANABA       SUNNY     51  39  63 W14       29.83S
MENOMINEE      SUNNY     51  42  71 VRB6      29.87R
SAWYER-GWINN   SUNNY     45  36  70 W8        29.80R
$$
MIZ001>003-009>011-084-211700-
WESTERN UPPER MICHIGAN

CITY           SKY/WX    TMP DP  RH WIND       PRES   REMARKS
IRON MOUNTAIN  SUNNY     47  35  63 W6        29.82R
HOUGHTON       SUNNY     38  32  79 W29       29.74F WCI  26
COPPER HARBOR    N/A     41  33  73 NW13G24   29.74R
IRONWOOD       SUNNY     45  34  65 SW9       29.82S
$$

ABBREVIATIONS USED IN REMARKS
   TC - TEMPERATURE IN CELSIUS
  WCI - WIND CHILL INDEX
   HX - HEAT INDEX
  VSB - VISIBILITY





USA.gov is the U.S. government's official web portal to all federal, state and local government web resources and services.